Regional Weather Roundup
Issued by NWS Green Bay, WI

Home | Current Version | Previous Version | Graphics & Text | Print | Product List | Glossary Off
Versions: 1 2 3 4 5 6 7 8 9 10 11 12 13 14 15 16 17 18 19 20 21 22 23 24 25 26 27 28 29 30 31 32 33 34 35 36 37 38 39 40 41 42 43 44 45 46 47 48 49 50

000
ASUS43 KGRB 290059
RWRGRB

NORTH-CENTRAL AND NORTHEAST WISCONSIN REGIONAL WEATHER ROUNDUP
NATIONAL WEATHER SERVICE GREEN BAY WI
700 PM CST FRI NOV 28 2014

WIZ005-009-010>012-018-019-290200-
NORTH CENTRAL WISCONSIN

CITY           SKY/WX    TMP DP  RH WIND       PRES   REMARKS
IRONWOOD       CLOUDY    16  10  79 CALM      29.85F
MANITOWISH WTR NOT AVBL
ARBOR VITAE    NOT AVBL
EAGLE RIVER    NOT AVBL
LAND O LAKES   NOT AVBL
RHINELANDER    CLOUDY    14  10  84 SE7       29.86F WCI   4
PHILLIPS       NOT AVBL
ANTIGO         NOT AVBL
TOMAHAWK       NOT AVBL
MERRILL        NOT AVBL
$$

WIZ013-073-290200-
NORTHEAST WISCONSIN

CITY           SKY/WX    TMP DP  RH WIND       PRES   REMARKS
IRON MOUNTAIN  CLOUDY    15  11  83 CALM      29.91F
MARINETTE      CLOUDY    21  19  93 NW5       29.93F
$$

WIZ017-030-035>037-045-290200-
CENTRAL WISCONSIN

CITY           SKY/WX    TMP DP  RH WIND       PRES   REMARKS
MEDFORD        NOT AVBL
WAUSAU         MOCLDY    18  14  84 E8        29.86F WCI   8
MOSINEE        FLURRIES  18  18 100 SE6       29.88F WCI   9
MARSHFIELD     CLOUDY    21  16  81 SE9       29.86F
WISC RAPIDS    MOCLDY    22  16  78 SE7       29.89F
STEVENS POINT  NOT AVBL
WAUPACA        NOT AVBL
SHAWANO        NOT AVBL
CLINTONVILLE   NOT AVBL
$$

WIZ038-039-048-051-290200-
FOX VALLEY

CITY           SKY/WX    TMP DP  RH WIND       PRES   REMARKS
NWS GREEN BAY  LGT SNOW  25  23  92 SE5       29.95S FOG
APPLETON       CLOUDY    25  19  80 VRB5      29.93F
OSHKOSH        CLOUDY    26  19  74 MISG      29.92F
FOND DU LAC    CLOUDY    27  19  72 S6        29.93R
$$

WIZ022-050-052-290200-
EAST CENTRAL WISCONSIN

CITY           SKY/WX    TMP DP  RH WIND       PRES   REMARKS
STURGEON BAY   CLOUDY    25  21  86 S6        29.93F
MANITOWOC      NOT AVBL
SHEBOYGAN      CLOUDY    28  22  78 S5        29.94F
$$

LMZ563-521-522-541>543-290200-
LAKESHORE

STATION/POSITION TIME  TEMP    WIND        PRES    VSBY  WAVE
                       AIR SEA DIR/SP/G                  HT/PER
                 (UTC) (F)     (DEG/KT/KT) (MB)    (MI)  (FT/S)
SHEBOYGAN LKSHOR 0000   32 36  200/ 17/ 19 1015.4F
KEWAUNEE LKSHORE 0000   28     240/  7/ 12 1013.6R
NORTHPORT PIER   0000   31     160/ 11/ 19 1014.2F
N MID LAKE BUOY  0000   29 42  160/ 19/ 21 1016.4F         3/ 4
SISTER BAY LKSHO 0000          120/  7/  8   N/A
CHAMBERS ISLAND  0000   28      80/  3/  5 1013.9F
MENOMINEE LKSHOR 0000   28      CALM  /  3 1014.6F
$$



USA.gov is the U.S. government's official web portal to all federal, state and local government web resources and services.